Wind_Speed
40 40 40 41 42 43 44 45 45 46 46 47 48 48 48 48 48 49 49 50 50 49 50 50 50 49 49 48 48 48 47 47 47 46 46 45 44 44 43 42 42 42 41
39 40 41 41 42 43 43 45 46 46 46 47 48 49 50 49 49 49 50 51 51 51 50 51 50 51 51 52 51 50 49 49 49 48 49 48 47 46 46 45 44 43 43
40 40 41 41 42 43 43 44 45 46 46 47 48 49 50 50 50 49 49 50 50 50 50 51 52 52 52 53 53 53 52 51 51 51 50 50 50 49 48 48 47 46 45
40 41 41 42 43 44 45 45 46 46 46 47 48 48 49 49 49 50 49 49 50 50 51 51 52 53 53 53 54 54 54 53 53 54 53 53 52 51 51 50 49 48 48
41 42 43 43 43 44 45 46 47 47 47 48 48 48 48 48 49 49 50 50 50 50 51 51 51 52 53 53 54 55 55 55 55 55 54 54 54 54 54 52 51 50 49
42 43 44 44 44 45 45 46 47 47 47 48 48 49 49 48 49 50 50 50 51 51 51 52 52 52 53 54 55 56 56 56 57 56 56 55 54 54 55 54 53 52 51
43 44 44 44 45 45 45 46 46 47 47 48 48 49 50 50 50 50 50 50 51 51 52 52 53 53 54 54 54 55 56 56 57 57 57 56 55 55 55 55 54 53 52
43 44 44 44 44 45 45 46 46 46 46 47 48 49 49 50 50 50 50 50 51 52 52 53 54 54 54 54 54 55 55 55 56 57 57 57 57 55 54 54 54 54 54
42 43 43 44 44 45 45 45 45 46 46 46 47 47 48 48 49 49 50 50 51 51 52 53 53 54 54 54 54 54 55 55 56 57 58 58 57 56 55 54 54 54 54
42 42 42 43 44 44 44 44 44 45 46 47 47 47 47 47 48 49 49 50 51 51 51 52 53 53 54 54 55 56 56 56 56 56 57 57 57 57 56 56 55 54 54
42 42 42 42 43 44 44 44 43 44 45 46 47 47 47 47 48 48 49 49 50 50 50 51 51 52 53 53 54 55 56 56 56 56 57 56 56 56 56 57 56 55 54
42 42 43 43 43 43 43 43 43 43 44 45 46 47 47 48 48 48 49 49 49 49 50 50 50 50 50 51 52 53 54 54 54 55 56 56 56 57 57 56 56 56 56
42 42 42 42 42 41 41 42 42 43 43 44 46 47 47 48 47 47 48 48 48 48 48 48 49 49 50 50 51 52 52 53 53 53 54 54 55 55 56 56 56 56 56
42 41 41 41 40 41 41 41 41 41 42 43 45 46 46 46 46 46 46 46 47 47 47 47 48 48 48 49 48 49 50 51 51 51 52 52 53 54 54 55 55 56 56
42 41 41 42 41 41 40 40 40 40 41 42 43 43 43 44 44 44 44 44 45 45 45 46 46 46 47 47 46 47 48 48 49 49 50 50 51 52 53 53 54 54 55
42 42 42 42 42 41 40 39 39 40 40 40 41 40 40 41 41 42 42 42 43 43 44 44 45 45 45 45 46 46 46 46 46 47 48 49 50 50 50 51 52 52 52
42 41 41 41 40 40 39 39 39 38 38 37 37 37 37 37 38 39 40 41 41 41 42 43 43 44 44 44 44 45 45 45 45 45 46 47 48 48 49 50 50 50 50
41 40 39 39 39 39 38 38 37 36 35 35 35 35 35 34 35 35 36 37 38 39 40 40 41 41 42 42 41 42 43 43 43 43 44 44 45 46 47 48 49 49 49
40 39 39 38 38 37 36 36 35 34 34 33 33 33 33 33 33 34 34 35 36 36 37 38 39 40 40 41 41 41 41 41 41 41 42 42 43 44 46 47 48 48 48
39 38 37 37 36 35 34 34 33 33 32 32 32 32 32 32 32 32 33 33 33 34 35 36 36 37 37 38 38 39 39 39 39 39 39 40 41 42 43 45 47 47 47
37 36 36 35 35 34 33 32 31 31 31 31 31 31 32 32 32 32 32 32 32 32 33 33 33 34 34 34 35 36 37 37 36 36 37 38 39 39 41 43 45 46 47
35 35 35 34 34 34 33 32 30 30 31 31 31 31 31 31 31 31 31 31 30 31 31 30 30 31 32 32 32 32 34 35 35 35 35 36 37 38 39 41 42 44 45
35 34 34 34 34 33 33 32 31 30 30 31 31 31 31 30 30 30 30 30 29 29 29 29 29 29 30 31 31 31 32 32 33 33 33 34 36 37 37 38 39 42 43
34 34 35 34 34 34 33 32 31 31 30 30 30 30 30 30 30 30 30 30 29 28 28 29 29 28 29 29 30 31 31 31 31 31 32 32 33 34 35 35 37 39 41
35 35 34 34 34 33 32 31 31 30 30 29 29 29 30 29 30 30 29 29 29 28 27 27 28 28 28 28 29 29 29 30 31 31 31 32 32 32 34 35 35 36 38
35 34 34 33 33 32 31 30 29 28 29 29 29 29 29 29 29 29 29 29 28 27 26 26 27 28 28 28 28 28 29 29 30 31 32 31 32 32 32 33 35 36 37
Wind_Direction
273 273 271 270 269 268 266 265 265 266 265 264 263 263 263 262 261 260 259 258 257 256 256 255 254 253 252 251 252 251 251 251 251 251 251 251 251 251 252 253 253 253 252
273 273 273 272 270 269 268 266 266 266 265 264 264 264 264 263 261 261 260 259 257 257 256 255 254 253 253 252 251 251 251 251 251 251 251 250 251 252 252 253 254 254 253
275 274 274 274 272 270 270 268 267 266 265 265 264 263 263 263 262 261 260 259 258 256 256 256 256 254 254 253 252 252 252 252 251 252 252 251 251 252 252 253 254 254 254
278 276 274 274 274 272 271 269 267 267 267 266 264 263 263 263 263 261 260 258 257 257 257 257 256 255 254 253 253 253 252 252 252 252 252 252 252 252 252 252 253 255 255
280 278 276 275 275 273 272 269 268 267 267 266 264 264 263 263 262 261 261 259 258 258 258 258 257 256 255 254 253 253 253 253 252 252 253 252 252 252 252 252 253 254 254
283 281 278 276 275 273 272 271 269 268 267 266 265 264 263 262 262 261 261 260 259 259 259 258 258 257 256 255 255 254 253 253 253 253 253 253 253 253 253 252 253 253 253
285 282 280 277 275 274 272 271 270 268 267 266 265 265 263 262 262 261 261 260 259 259 259 259 258 258 257 256 255 254 254 253 253 253 253 253 254 253 253 253 253 252 252
286 284 281 278 276 274 273 272 270 268 268 267 266 265 264 263 263 262 261 260 260 260 259 259 259 258 257 256 255 254 254 253 253 253 253 253 253 253 253 253 253 252 252
289 287 283 280 277 275 274 272 270 269 269 268 267 266 265 264 264 263 262 260 260 260 260 259 259 259 258 257 255 255 254 253 253 253 253 253 253 253 253 253 252 252 252
290 288 285 282 279 277 275 273 272 270 269 269 268 267 266 265 265 264 263 262 262 262 261 260 259 259 259 258 257 256 255 254 254 254 253 253 252 253 252 252 252 252 252
290 288 287 284 281 279 277 274 273 271 270 269 269 268 267 266 266 266 265 264 262 262 261 261 260 260 259 258 258 257 256 255 255 254 254 253 252 252 252 251 251 251 251
292 291 290 287 284 280 278 276 274 273 272 270 269 268 268 268 268 266 265 263 262 261 261 261 261 260 259 258 258 257 256 255 255 254 254 253 252 252 251 251 250 251 251
295 293 292 291 287 283 279 277 275 274 273 272 270 269 269 268 267 266 264 263 263 262 262 260 260 259 259 258 258 257 256 256 255 254 253 253 252 251 251 250 250 250 251
297 295 293 291 289 286 283 280 278 276 274 274 273 271 270 268 267 266 264 263 263 262 262 261 261 260 259 259 258 257 257 256 255 254 253 252 251 250 250 250 250 250 250
297 296 294 292 290 289 286 283 281 278 276 275 274 273 271 269 267 265 263 263 263 262 261 261 260 260 259 259 258 258 257 256 255 254 253 252 250 249 249 250 249 249 250
298 296 295 293 291 289 287 285 284 281 278 277 275 274 272 271 268 266 263 262 262 262 261 260 259 259 258 258 257 257 257 256 255 254 253 252 249 249 249 248 248 248 249
299 297 296 294 291 289 287 286 285 283 280 278 276 275 273 271 269 267 265 263 262 262 262 261 259 259 259 258 257 256 256 256 256 255 253 251 249 248 247 247 247 247 248
299 298 298 296 293 290 287 286 285 283 281 278 276 276 275 273 271 269 268 265 263 262 262 262 260 259 258 258 257 256 256 255 255 254 253 251 249 248 247 247 247 247 249
301 300 299 298 295 292 289 287 284 283 281 279 277 276 276 275 274 272 270 268 265 264 263 262 260 259 257 257 255 255 255 255 254 253 252 251 250 249 248 247 247 247 248
302 302 301 300 297 295 292 287 284 282 281 279 278 277 276 276 275 273 272 270 268 266 264 263 261 259 257 256 254 254 254 254 253 252 251 252 251 251 250 249 248 248 248
303 302 302 301 298 296 294 290 286 282 281 279 279 278 277 276 274 273 272 272 269 267 265 264 261 258 257 255 254 253 252 253 252 251 252 252 251 251 251 251 249 248 249
303 303 302 301 300 297 294 291 287 284 281 279 279 278 278 276 274 273 272 272 270 267 265 263 261 258 256 254 253 252 252 251 251 252 251 251 250 250 249 250 250 250 249
304 304 303 302 302 300 296 291 288 286 282 280 279 278 277 277 275 273 272 272 270 268 265 262 260 259 257 255 253 252 252 251 250 250 250 250 249 248 249 251 251 250 248
305 303 303 303 302 301 298 293 290 286 284 281 279 278 276 275 274 272 271 271 270 269 265 262 259 258 257 256 254 254 253 252 252 250 249 250 251 251 250 249 249 250 250
306 304 303 303 303 301 299 296 293 290 287 284 280 279 278 276 275 273 271 269 267 266 264 260 258 256 255 256 255 253 252 253 251 251 251 251 252 253 252 250 251 252 252
306 305 303 302 302 301 300 298 296 293 289 286 283 280 279 277 276 274 271 268 265 263 261 260 258 255 255 254 253 253 252 253 254 253 252 253 253 253 253 254 253 254 254
Height
5708 5707 5707 5707 5706 5706 5707 5707 5708 5708 5708 5709 5709 5710 5710 5710 5711 5712 5714 5715 5717 5719 5721 5724 5726 5729 5731 5734 5737 5740 5743 5746 5749 5752 5755 5758 5760 5764 5766 5768 5771 5773 5776
5697 5697 5696 5696 5695 5695 5695 5695 5695 5696 5696 5696 5696 5697 5697 5698 5698 5699 5700 5702 5704 5706 5708 5711 5713 5716 5719 5721 5724 5728 5731 5734 5737 5740 5743 5747 5750 5753 5756 5758 5760 5763 5766
5686 5686 5685 5684 5683 5683 5683 5682 5682 5683 5683 5683 5683 5683 5684 5685 5685 5686 5687 5689 5690 5692 5695 5697 5700 5702 5705 5708 5711 5714 5718 5721 5724 5727 5730 5734 5738 5741 5745 5747 5750 5753 5755
5675 5673 5672 5672 5671 5671 5670 5670 5670 5670 5669 5669 5670 5670 5671 5672 5672 5673 5674 5676 5677 5679 5681 5683 5686 5688 5691 5694 5697 5700 5704 5707 5711 5714 5717 5721 5725 5728 5732 5735 5738 5741 5744
5663 5661 5660 5659 5659 5658 5657 5657 5656 5656 5656 5656 5656 5656 5657 5658 5659 5660 5661 5663 5664 5665 5667 5670 5672 5674 5677 5680 5683 5686 5689 5693 5696 5700 5703 5707 5711 5714 5718 5722 5726 5729 5732
5651 5649 5648 5647 5646 5645 5644 5643 5643 5643 5642 5642 5642 5643 5643 5644 5645 5646 5648 5649 5650 5652 5654 5656 5658 5660 5662 5665 5668 5671 5674 5678 5681 5685 5689 5692 5696 5700 5704 5708 5712 5716 5719
5639 5637 5635 5634 5633 5632 5631 5630 5630 5629 5629 5629 5629 5629 5629 5630 5631 5633 5634 5635 5636 5638 5640 5641 5643 5645 5647 5650 5652 5656 5659 5662 5666 5670 5674 5677 5681 5685 5689 5693 5697 5701 5706
5628 5625 5623 5621 5619 5618 5617 5617 5616 5616 5616 5616 5615 5615 5616 5616 5617 5618 5620 5621 5622 5624 5625 5627 5628 5630 5632 5635 5637 5640 5644 5647 5651 5655 5658 5662 5666 5670 5674 5678 5682 5686 5691
5616 5613 5611 5609 5607 5605 5604 5603 5603 5603 5603 5602 5602 5602 5602 5603 5604 5604 5605 5607 5608 5609 5610 5612 5613 5615 5617 5620 5622 5625 5628 5632 5635 5639 5643 5647 5651 5655 5659 5663 5667 5671 5675
5605 5602 5599 5597 5594 5592 5591 5590 5590 5589 5589 5589 5589 5589 5589 5589 5590 5591 5591 5592 5593 5594 5596 5597 5598 5600 5602 5604 5607 5609 5612 5616 5620 5623 5627 5631 5635 5640 5644 5648 5652 5656 5660
5594 5591 5588 5585 5582 5580 5579 5578 5577 5576 5576 5575 5575 5575 5575 5576 5576 5577 5577 5578 5579 5580 5581 5582 5584 5585 5587 5589 5591 5594 5597 5600 5604 5607 5611 5616 5620 5624 5628 5633 5637 5641 5645
5583 5580 5576 5573 5571 5568 5566 5565 5564 5563 5562 5562 5562 5561 5561 5562 5562 5562 5562 5563 5564 5565 5566 5568 5569 5570 5572 5574 5576 5579 5581 5584 5588 5592 5595 5600 5604 5608 5613 5617 5622 5626 5630
5573 5569 5565 5562 5559 5556 5554 5553 5551 5550 5549 5549 5548 5548 5547 5547 5547 5547 5548 5548 5550 5551 5552 5553 5554 5555 5557 5559 5561 5563 5566 5569 5573 5576 5580 5584 5588 5593 5597 5601 5606 5611 5615
5562 5558 5554 5551 5547 5544 5542 5540 5539 5537 5536 5535 5534 5534 5533 5533 5533 5533 5533 5534 5535 5536 5537 5538 5540 5541 5542 5544 5546 5549 5551 5554 5558 5561 5564 5568 5572 5577 5581 5586 5591 5595 5599
5551 5547 5543 5539 5536 5533 5530 5528 5526 5525 5523 5522 5521 5520 5519 5519 5519 5519 5520 5521 5521 5522 5524 5525 5526 5527 5529 5531 5533 5534 5537 5540 5543 5547 5550 5554 5557 5562 5566 5571 5575 5580 5584
5540 5536 5532 5528 5524 5521 5518 5516 5514 5512 5511 5510 5508 5507 5507 5506 5506 5506 5506 5507 5508 5509 5510 5511 5513 5514 5515 5517 5519 5521 5523 5526 5529 5533 5536 5539 5543 5547 5552 5556 5560 5565 5569
5530 5525 5521 5517 5513 5509 5507 5505 5503 5501 5499 5497 5496 5495 5495 5494 5494 5493 5494 5495 5496 5496 5497 5498 5500 5501 5502 5504 5505 5507 5510 5513 5516 5519 5523 5526 5530 5533 5537 5541 5546 5551 5555
5519 5515 5510 5506 5502 5499 5496 5493 5491 5489 5488 5486 5485 5484 5484 5483 5483 5482 5482 5483 5484 5484 5485 5486 5487 5488 5490 5491 5493 5495 5497 5500 5503 5506 5510 5513 5517 5520 5524 5527 5532 5537 5542
5509 5505 5500 5496 5492 5488 5485 5483 5481 5479 5478 5476 5475 5474 5473 5473 5472 5472 5472 5472 5473 5473 5474 5474 5475 5476 5478 5479 5481 5483 5485 5488 5491 5494 5498 5501 5505 5508 5511 5515 5519 5524 5528
5500 5495 5490 5486 5482 5479 5476 5473 5471 5469 5468 5467 5466 5464 5464 5463 5462 5462 5462 5462 5462 5462 5463 5463 5464 5465 5467 5468 5470 5472 5474 5478 5481 5484 5487 5490 5493 5496 5498 5502 5506 5510 5515
5491 5486 5482 5477 5473 5469 5466 5463 5461 5460 5459 5457 5456 5455 5454 5453 5453 5452 5452 5452 5452 5452 5453 5453 5454 5455 5457 5458 5460 5461 5464 5467 5470 5473 5476 5479 5481 5484 5487 5490 5493 5497 5501
5482 5477 5473 5469 5464 5460 5457 5454 5452 5451 5449 5448 5447 5446 5445 5444 5443 5443 5442 5442 5442 5442 5443 5444 5445 5445 5447 5448 5450 5452 5454 5457 5460 5463 5465 5468 5471 5473 5476 5478 5481 5484 5488
5474 5469 5465 5461 5457 5452 5449 5446 5443 5442 5440 5439 5438 5437 5436 5435 5434 5434 5433 5433 5433 5433 5434 5434 5435 5437 5438 5439 5441 5443 5445 5447 5450 5453 5455 5458 5460 5463 5465 5467 5470 5472 5476
5466 5461 5457 5453 5449 5445 5441 5437 5435 5433 5432 5430 5429 5428 5427 5426 5425 5425 5424 5424 5424 5424 5425 5425 5427 5428 5429 5431 5432 5435 5437 5439 5440 5443 5446 5448 5450 5452 5455 5457 5459 5462 5465
5457 5453 5448 5444 5441 5437 5433 5430 5427 5425 5423 5421 5420 5419 5418 5417 5416 5416 5416 5415 5416 5415 5416 5417 5418 5420 5421 5422 5424 5425 5428 5430 5432 5434 5436 5439 5441 5442 5444 5447 5449 5451 5453
5449 5444 5440 5436 5432 5429 5425 5422 5419 5417 5415 5413 5412 5410 5409 5408 5407 5407 5407 5407 5407 5407 5408 5408 5409 5411 5413 5414 5416 5417 5419 5421 5423 5425 5428 5430 5432 5433 5435 5437 5439 5441 5443